Hayward, WI

4:35 PM CST on February 23, 2017 (GMT -0600)
Sawyer County

Weather History for KHYR - May, 2013

Change the Weather History Date:

Wednesday, May 15, 2013

  Actual Average Record
Temperature  
Mean Temperature 64 °F -  
Max Temperature 80 °F 80 °F 88 °F (2001)
Min Temperature 50 °F 51 °F 24 °F (2004)
Growing Degree Days 14 (Base 50)    
Moisture  
Dew Point 39 °F    
Average Humidity 41    
Maximum Humidity 74    
Minimum Humidity 18    
Precipitation  
Precipitation 0.00 in - - ()
Sea Level Pressure  
Sea Level Pressure 29.79 in    
Wind  
Wind Speed 6 mph (WNW)    
Max Wind Speed 9 mph    
Max Gust Speed 23 mph    
Visibility 10 miles    
Events      
Averages and records for this station are not official NWS values.
T = Trace of Precipitation, MM = Missing Value Source: NWS Daily Summary

Daily Weather History Graph

Daily Weather History Graph

Search for Another Location

Airport or City:

Trip Planner

Search our weather history database for the weather conditions in past years. The results will help you decide how hot, cold, wet, or windy it might be!

Date:

Astronomy

May. 15, 2013 Rise Set
Actual Time 5:33 AM CDT 8:31 PM CDT
Civil Twilight 4:58 AM CDT 9:07 PM CDT
Nautical Twilight 4:13 AM CDT 9:52 PM CDT
Astronomical Twilight 3:19 AM CDT 10:46 PM CDT
Moon 10:12 AM CDT (5/15) 12:15 AM CDT (5/15)
Length of Visible Light 16h 08m
Length of Day
14h 58m
Waxing Crescent, 27% of the Moon is Illuminated
May 15
Waxing Crescent
May 17
First Quarter
May 24
Full
May 31
Last Quarter
Jun 8
New

Hourly Weather History & Observations

Time (CDT) Temp. Dew Point Humidity Pressure Visibility Wind Dir Wind Speed Gust Speed Precip Events Conditions
12:53 AM 64.9 °F 44.1 °F 47% 29.61 in 10.0 mi WNW 9.2 mph 18.4 mph N/A   Clear
1:53 AM 63.0 °F 45.0 °F 52% 29.64 in 10.0 mi WNW 9.2 mph 19.6 mph N/A   Clear
2:53 AM 59.0 °F 45.0 °F 60% 29.69 in 10.0 mi Variable 4.6 mph - N/A   Clear
3:53 AM 57.0 °F 44.1 °F 62% 29.73 in 10.0 mi Variable 4.6 mph - N/A   Clear
4:53 AM 54.0 °F 43.0 °F 66% 29.75 in 10.0 mi Variable 3.5 mph - N/A   Clear
5:53 AM 50.0 °F 42.1 °F 74% 29.77 in 10.0 mi Calm Calm - N/A   Clear
6:53 AM 54.0 °F 43.0 °F 66% 29.80 in 10.0 mi West 3.5 mph - N/A   Clear
7:53 AM 57.9 °F 44.1 °F 60% 29.84 in 10.0 mi Variable 6.9 mph - N/A   Clear
8:53 AM 62.1 °F 43.0 °F 50% 29.87 in 10.0 mi West 8.1 mph - N/A   Clear
9:53 AM 64.9 °F 42.1 °F 43% 29.86 in 10.0 mi Variable 4.6 mph - N/A   Clear
10:53 AM 68.0 °F 41.0 °F 37% 29.86 in 10.0 mi Variable 6.9 mph - N/A   Clear
11:53 AM 72.0 °F 36.0 °F 27% 29.84 in 10.0 mi Variable 5.8 mph - N/A   Clear
12:53 PM 75.0 °F 37.0 °F 25% 29.82 in 10.0 mi Variable 6.9 mph 18.4 mph N/A   Scattered Clouds
1:53 PM 78.1 °F 37.0 °F 23% 29.80 in 10.0 mi Variable 6.9 mph - N/A   Mostly Cloudy
2:53 PM 77.0 °F 34.0 °F 21% 29.80 in 10.0 mi Variable 6.9 mph 23.0 mph N/A   Clear
3:53 PM 79.0 °F 33.1 °F 19% 29.78 in 10.0 mi NW 9.2 mph - N/A   Mostly Cloudy
4:53 PM 79.0 °F 32.0 °F 18% 29.77 in 10.0 mi Variable 5.8 mph - N/A   Mostly Cloudy
5:53 PM 78.1 °F 30.9 °F 18% 29.77 in 10.0 mi WNW 6.9 mph - N/A   Mostly Cloudy
6:53 PM 77.0 °F 30.9 °F 19% 29.78 in 10.0 mi Variable 6.9 mph 18.4 mph N/A   Partly Cloudy
7:53 PM 73.0 °F 30.9 °F 21% 29.78 in 10.0 mi Variable 3.5 mph - N/A   Clear
8:53 PM 68.0 °F 34.0 °F 28% 29.80 in 10.0 mi Calm Calm - N/A   Overcast
9:53 PM 64.0 °F 35.1 °F 34% 29.83 in 10.0 mi NNE 3.5 mph - N/A   Clear
10:53 PM 52.0 °F 37.0 °F 57% 29.83 in 10.0 mi Calm Calm - N/A   Clear
11:53 PM 53.1 °F 39.9 °F 61% 29.84 in 10.0 mi Calm Calm - N/A   Mostly Cloudy